Regional Weather Roundup
Issued by NWS

Home | Current Version | Previous Version | Text Only | Print | Product List | Glossary Off
Versions: 1 2 3 4 5 6 7 8 9 10 11 12 13 14 15 16 17 18 19 20 21 22 23 24 25 26 27 28 29 30 31 32 33 34 35 36 37 38 39 40 41 42 43 44 45 46 47 48 49 50

000
ASUS43 KOAX 251410
RWRNE

WEATHER ROUNDUP FOR NEBRASKA
NATIONAL WEATHER SERVICE OMAHA NE
800 AM CST SUN JAN 25 2015

NOTES: SATELLITE DATA IS BEING USED TO AUGMENT CLOUD COVER ABOVE
       12000 FEET.
       "FAIR" INDICATES FEW OR NO CLOUDS BELOW 12,000 FEET WITH NO
       SIGNIFICANT WEATHER AND/OR OBSTRUCTIONS TO VISIBILITY.

  * THESE STATIONS DO NOT REPORT WEATHER SUCH AS RAIN...SNOW OR FOG.

NEZ001>004-019>022-054>056-251500-
NEBRASKA PANHANDLE

CITY           SKY/WX    TMP DP  RH WIND       PRES   REMARKS
SCOTTSBLUFF    PTCLDY    32  27  81 NW9       30.11S WCI  24
ALLIANCE       CLEAR     31  26  82 W12       30.06R WCI  22
CHADRON        CLEAR     36  28  73 W16       30.08R WCI  26
KIMBALL        PTCLDY    32  28  83 W9        30.09S WCI  24
SIDNEY         CLEAR     32  25  75 W13       30.09S WCI  22
$$

NEZ057>060-069>072-079>082-251500-
SOUTHWEST NEBRASKA

CITY           SKY/WX    TMP DP  RH WIND       PRES   REMARKS
NORTH PLATTE   CLEAR     28  24  85 W9        30.03R WCI  19
IMPERIAL       CLEAR     33  23  66 NW13      30.07S WCI  24
LEXINGTON      PTCLDY    34  28  79 NW10      30.00R WCI  26
MCCOOK         CLEAR     37  25  61 NW16      30.04R WCI  28
OGALLALA       CLEAR     32  26  77 NW13      30.07R WCI  22
$$

NEZ005>010-023>029-035>040-094-251500-
NORTH CENTRAL NEBRASKA

CITY           SKY/WX    TMP DP  RH WIND       PRES   REMARKS
VALENTINE      CLEAR     34  27  75 NW14      30.00R WCI  25
AINSWORTH      CLOUDY    35  29  79 NW20G25   29.98R WCI  24
BROKEN BOW     PTCLDY    36  29  75 NW24G31   29.96R WCI  24
O`NEILL        CLOUDY    37  34  91 NW18G25   29.95R WCI  27
ORD            CLOUDY    38  30  73 N18G25    29.94R WCI  28
THEDFORD       CLEAR     34  28  79 NW14      30.01R WCI  25
$$

NEZ041-046>049-061>064-073>077-083>087-251500-
SOUTH CENTRAL NEBRASKA

CITY           SKY/WX    TMP DP  RH WIND       PRES   REMARKS
GRAND ISLAND   CLOUDY    39  32  76 N22G36    29.93R WCI  29
AURORA         CLOUDY    37  33  82 N22G29    29.91R WCI  27
HASTINGS       CLOUDY    39  29  67 N28G35    29.91R WCI  28
HEBRON         CLOUDY    40  32  72 N20G26    29.89R WCI  31
HOLDREGE       CLEAR     37  27  68 NW16G25   29.97R WCI  27
KEARNEY *      CLEAR     36  27  69 NW16      29.96R WCI  26
YORK           CLOUDY    36  32  87 N14G21    29.90R WCI  27
$$

NEZ011>018-030>034-042>045-251500-
NORTHEAST NEBRASKA

CITY           SKY/WX    TMP DP  RH WIND       PRES   REMARKS
NORFOLK        CLOUDY    33  31  92 N18G26    29.91R WCI  22
ALBION         CLOUDY    36  32  87 N16G28    29.92R WCI  26
BLAIR          CLOUDY    36  32  87 NW23G31   29.82R WCI  24
COLUMBUS *     CLOUDY    34  27  75 N18G28    29.91R WCI  23
FREMONT        CLOUDY    36  32  87 NW24G31   29.86R WCI  24
TEKAMAH        LGT RAIN  36  33  89 N23G31    29.86R WCI  24
WAYNE          CLOUDY    33  32  94 NW16G24   29.91R WCI  23
$$

NEZ050>053-065>068-078-088>093-251500-
SOUTHEAST NEBRASKA

CITY           SKY/WX    TMP DP  RH WIND       PRES   REMARKS
LINCOLN        CLOUDY    36  30  79 N22       29.87R WCI  25
OMAHA EPPLEY   CLOUDY    36  33  89 N24G33    29.81R WCI  24
BEATRICE       CLOUDY    36  32  85 NW24G31   29.85R WCI  24
FALLS CITY     CLOUDY    36  31  82 NW20G32   29.76R WCI  25
NEBRASKA CITY  CLOUDY    36  31  82 N23G31    29.79R WCI  24
PLATTSMOUTH    DRIZZLE   35  32  89 NW23G29   29.79R WCI  23
$$

NEZ044-045-051>053-067-251500-
OMAHA AREA

CITY           SKY/WX    TMP DP  RH WIND       PRES   REMARKS
OMAHA EPPLEY   CLOUDY    36  33  89 N24G33    29.81R WCI  24
BLAIR          CLOUDY    36  32  87 NW23G31   29.82R WCI  24
FREMONT        CLOUDY    36  32  87 NW24G31   29.86R WCI  24
MILLARD        CLOUDY    37  32  84 NW12G21   29.83R WCI  29
OFFUTT AFB     LGT RAIN  36  33  87 N21G28    29.81R WCI  25
PLATTSMOUTH    DRIZZLE   35  32  89 NW23G29   29.79R WCI  23
WAHOO          CLOUDY    35  30  82 N24G33    29.85R WCI  23
$$


USA.gov is the U.S. government's official web portal to all federal, state and local government web resources and services.